SL-24 DEB

Satellite information

Favourite Embed

Satellite Type and Status

DEBRISIN ORBIT

Key statistics

Satellite SL-24 DEB at a glance.

Uptime

5629

Days in orbit

Revolutions

≈ 14.7

Per day

Orbit

SSO

Sun Synchronous Orbit

Inclination

92.0

Latest

Satellite identification and parameters

Extended collection of information and parameters for SL-24 DEB.

Object identification

Identified? True

Debris? True

Object name: SL-24 DEB

International designator: 2010-013C

Object number (NORAD): 36510

Object ID (CCSDS): 36510

Country: COMMONWEALTH OF INDEPENDENT STATES (CIS)

Current information (Y/N): Y

RCS size: LARGE

Orbital parameters

Period: 97.732 minutes

Inclination: 92.0177 deg

SMA: 7028.294 km

Apoapsis: 662.552 km

Periapsis: 637.765 km

RAAN: 233.4718 deg

Eccentricy: 0.00176338

Argument of periapsis: 312.75 deg

Mean anomaly: 47.2234 deg

Mean motion: 14.73424541 rev/day

Mean motion (dot): 0.00004879 rev/day2

B* drag term: 0.00075030809 1/REarth

Two-line elements (TLE)

Creation date: Sept. 4, 2025, 10:13 a.m.

Reference frame: TEME

Reference center: EARTH

Epoch: Sept. 4, 2025, 4:51 a.m. UTC

TLE line 0: 0 SL-24 DEB

TLE line 1: 1 36510U 10013C 25247.20275279 .00004879 00000-0 75031-3 0 9991

TLE line 2: 2 36510 92.0177 233.4718 0017634 312.7500 47.2234 14.73424541822357

Live tracking on map

Real-time ground track for satellite SL-24 DEB.

In-orbit conjunctions

A list of the most updated potential collisions computed for object SL-24 DEB.

Target Orbit TCA Probability of collision Miss distance Type
CZ-2C DEB SSO 2025-02-23 11:21:50 0.0002031184 105.0 (m) DEBRIS
CZ-4 DEB SSO 2024-11-11 11:26:15 0.0002633153 448.0 (m) DEBRIS
CZ-6A DEB LEO 2024-10-31 17:18:11 0.0001796821 168.0 (m) DEBRIS

Associated space launch

SL-24 DEB was lifted into orbit during the mission ‘Dnepr 1 | Cryosat-2’, on board a Dnepr space rocket.

The launch took place on April 8, 2010, 1:57 p.m. from 109/95.

For more information about the launch, click the button.

Launch to space Dnepr 1 | Cryosat-2
Dnepr 1 | Cryosat-2

Agency: N/A

Status: Launch Successful

Launch date: April 8, 2010, 1:57 p.m. UTC

Rocket: Dnepr

Launch pad: 109/95

Location: Baikonur Cosmodrome, Republic of Kazakhstan

...

Latest news about this satellite

News about space launch
ESA’s Long-Serving CryoSat Satellite Avoids Early End to its Mission

The European Space Agency has avoided an early end to its CryoSat mission after a fuel leak was detected aboard the satellite. CryoSat was launched aboard a Dnepr rocket from Baikonur in April 2010. The satellite’s mission is dedicated to measuring the th...


Newsletter sign-up

Weekly statistics, charts and insights to help you stay on top of the space industry.